CAPE
2 3 1 2 3 0 0 0 0 0 0 0 0 0 0 0 0 0 0 0 0 0 0 0 0 0 0 0 0 0 0 0 0 0 0 0 0 0 0 0 0 0 0 0
1 2 2 5 5 0 0 0 0 0 0 0 0 0 0 0 0 0 0 0 0 0 0 0 0 0 0 0 0 0 0 0 0 0 0 0 0 0 0 0 0 0 0 0
14 2 2 6 6 0 0 0 0 0 0 0 0 0 0 0 0 0 0 0 0 0 0 0 0 0 0 0 0 0 0 0 0 0 0 0 0 0 0 0 0 0 0 0
17 1 2 4 9 0 0 0 0 0 0 0 0 0 1 0 0 0 0 0 0 0 0 0 0 0 0 0 0 0 0 0 0 0 0 0 0 0 0 1 0 0 0 0
47 3 2 3 11 0 0 0 0 1 1 0 0 0 0 0 0 0 0 0 0 0 0 0 0 0 0 0 0 0 0 0 0 0 0 0 0 0 0 0 0 0 0 0
64 21 2 3 6 0 0 1 1 0 1 2 1 0 0 0 0 0 0 0 0 0 0 0 0 0 0 0 0 0 0 0 0 0 0 0 0 0 0 0 0 0 0 0
95 45 3 4 3 0 0 0 0 0 0 0 0 0 0 0 0 0 0 0 0 0 0 0 0 0 0 0 0 0 0 0 1 0 0 0 0 0 0 0 0 0 0 0
100 75 2 4 9 1 0 0 1 0 1 0 0 0 0 0 0 0 0 0 0 0 0 0 0 0 0 0 0 0 0 0 0 0 0 0 0 0 0 0 0 0 0 0
28 2 6 7 11 3 0 1 1 1 0 0 0 0 0 0 0 0 0 0 0 0 0 0 0 0 0 0 0 0 0 0 0 0 0 0 0 0 0 0 0 0 0 0
5 6 7 7 6 3 0 0 0 0 0 0 0 0 0 0 0 0 0 0 0 0 0 0 0 0 0 0 0 0 0 0 0 0 0 1 0 0 0 0 0 0 0 0
11 10 7 6 5 3 0 1 0 0 0 0 0 0 0 0 0 0 0 0 0 0 0 0 0 0 0 0 0 0 0 0 0 0 0 0 0 0 0 0 0 0 0 0
12 11 9 6 5 2 0 0 0 0 0 0 0 0 0 0 0 0 0 0 0 0 0 0 0 0 0 0 0 0 0 0 0 0 0 0 0 0 0 0 0 0 0 0
14 14 11 10 1 0 0 0 0 0 0 0 0 0 0 0 0 0 0 0 0 0 0 0 0 0 0 0 0 0 0 0 0 0 0 0 0 0 0 0 0 0 0 0
26 13 4 0 0 0 0 0 0 0 0 0 0 0 0 0 0 0 0 0 0 0 0 0 0 0 0 0 0 0 0 0 0 0 0 0 0 0 0 0 0 0 0 0
7 1 0 0 0 0 0 0 0 0 0 0 0 0 0 0 0 0 0 0 0 0 0 0 0 0 0 0 0 0 0 0 0 0 0 0 0 0 0 0 0 0 0 0
0 0 0 0 0 0 0 0 0 0 0 0 0 0 0 0 0 0 0 0 0 0 0 0 0 0 0 0 0 0 0 0 0 0 0 0 0 0 0 0 0 0 0 0
0 0 0 0 0 0 0 0 0 0 0 0 0 0 0 0 0 0 0 0 0 0 0 0 0 0 0 0 0 0 0 0 0 0 0 0 0 0 0 0 0 0 0 0
0 0 0 0 0 0 0 0 0 0 0 0 0 0 0 0 0 0 0 0 0 0 0 0 0 0 0 0 0 0 0 0 0 0 0 0 0 0 0 0 0 0 0 0
0 0 0 0 0 0 0 0 0 0 0 0 0 0 0 0 0 0 0 0 0 0 0 0 0 0 0 0 0 0 0 0 0 0 0 0 0 0 0 0 0 0 0 0
0 0 0 0 0 0 0 0 0 0 0 0 0 0 0 0 0 0 0 0 0 0 0 0 0 0 0 0 0 0 0 0 0 0 0 0 0 0 0 0 0 0 0 0
0 0 0 0 0 0 0 0 0 0 0 0 0 0 0 0 0 0 0 0 0 0 0 0 0 0 0 0 0 0 0 0 0 0 0 0 0 0 0 0 0 0 0 0
0 0 0 0 0 0 0 0 0 0 0 0 0 0 0 0 0 0 0 0 0 0 0 0 0 0 0 0 0 0 0 0 0 0 0 0 0 0 0 0 0 0 0 0
0 0 0 0 0 0 0 0 0 0 0 0 0 0 0 0 0 0 0 0 0 0 0 0 0 0 0 0 0 0 0 0 0 0 0 0 0 0 0 0 0 0 0 0
0 0 0 0 0 0 0 0 0 0 0 0 0 0 0 0 0 0 0 0 0 0 0 0 0 0 0 0 0 0 0 0 0 0 0 0 0 0 0 0 0 0 0 0
0 0 0 0 0 0 0 0 0 0 0 0 0 0 0 0 0 0 0 0 0 0 0 0 0 0 0 0 0 0 0 0 0 0 0 0 0 0 0 0 0 0 0 0
0 0 0 0 0 0 0 0 0 0 0 0 0 0 0 0 0 0 0 0 0 0 0 0 0 0 0 0 0 0 0 0 0 0 0 0 0 0 0 0 0 0 0 0
0 0 0 0 0 0 0 0 0 0 0 0 0 0 0 0 0 0 0 0 0 0 0 0 0 0 0 0 0 0 0 0 0 0 0 0 0 0 0 0 0 0 0 0
CIN
0 0 0 0 0 0 0 0 0 0 0 0 0 0 0 0 0 0 0 0 0 0 0 0 0 0 0 0 0 0 0 0 0 0 0 0 0 0 0 0 0 0 0 0
-10 0 0 0 0 0 0 0 0 0 0 0 0 0 0 0 0 0 0 0 0 0 0 0 0 0 0 0 0 0 0 0 0 0 0 0 0 0 0 0 0 0 -3 0
-35 0 0 0 0 0 0 0 0 0 0 0 0 0 0 0 0 0 0 0 0 0 0 0 0 0 0 0 0 0 0 0 0 0 0 0 0 0 0 0 0 0 0 0
-10 -6 0 0 0 0 0 0 0 0 0 0 0 0 0 0 0 0 0 0 0 0 0 0 0 0 0 0 0 0 0 0 0 0 0 0 0 0 0 -7 0 -1 0 0
0 -21 0 0 0 0 0 0 0 0 0 0 0 0 0 0 0 0 0 0 0 0 0 0 0 0 0 0 0 0 0 0 0 0 0 0 0 0 0 0 0 0 0 0
-4 -8 0 0 0 0 0 0 0 0 0 0 0 0 0 0 0 0 0 0 0 0 0 0 0 0 0 0 0 0 0 0 0 0 0 0 0 0 0 0 0 0 0 0
-7 -42 0 0 0 0 0 0 0 0 0 0 0 0 0 0 0 0 0 0 0 0 0 0 0 0 0 0 0 0 0 -1 -2 0 0 0 0 0 0 0 0 0 0 0
-1 -2 0 0 0 0 0 0 0 0 0 0 0 0 0 0 0 0 0 0 0 0 0 0 0 0 0 0 0 0 0 0 0 0 0 0 0 0 0 0 0 0 0 0
-4 0 0 0 0 0 0 0 0 0 0 0 0 0 0 0 0 0 0 0 0 0 0 0 0 0 0 0 0 0 0 0 0 0 0 0 0 0 0 0 0 0 0 0
0 0 0 0 0 0 0 0 0 0 0 0 0 0 0 0 0 0 0 0 0 0 0 0 0 0 0 0 0 0 0 0 0 0 0 -5 0 0 0 0 0 0 0 0
0 0 0 0 0 0 0 0 0 0 0 0 0 0 0 0 0 0 0 0 0 0 0 0 0 0 0 0 0 0 0 0 0 0 0 0 0 0 0 0 0 0 0 0
0 0 0 0 0 0 0 0 0 0 0 0 0 0 0 0 0 0 0 0 0 0 0 0 0 0 0 0 0 0 0 0 0 0 0 0 0 0 0 0 0 0 0 0
0 0 0 0 0 0 0 0 0 0 0 0 0 0 0 0 0 0 0 0 0 0 0 0 0 0 0 0 0 0 0 0 0 0 0 0 0 0 0 0 0 0 0 0
0 0 0 0 0 0 0 0 0 0 0 0 0 0 0 0 0 0 0 0 0 0 0 0 0 0 0 0 0 0 0 0 0 0 0 0 0 0 0 0 0 0 0 0
0 -1 0 0 0 0 0 0 0 0 0 0 0 0 0 0 0 0 0 0 0 0 0 0 0 0 0 0 0 0 0 0 0 0 0 0 0 0 0 0 0 0 0 0
-1 0 0 0 0 0 0 0 0 0 0 0 0 0 0 0 0 0 0 0 0 0 0 0 0 0 0 0 0 0 0 0 0 0 0 0 0 0 0 0 0 0 0 0
-1 0 0 0 0 0 0 0 0 0 0 0 0 0 0 0 0 0 0 0 0 0 0 0 0 0 0 0 0 0 0 0 0 0 0 0 0 0 0 0 0 0 0 0
0 0 0 0 0 0 0 0 0 0 0 0 0 0 0 0 0 0 0 0 0 0 0 0 0 0 0 0 0 0 0 0 0 0 0 0 0 0 0 0 0 0 0 0
0 0 0 0 0 0 0 0 0 0 0 0 0 0 0 0 0 0 0 0 0 0 0 0 0 0 0 0 0 0 0 0 0 0 0 0 0 0 0 0 0 0 0 0
0 0 0 0 0 0 0 0 0 0 0 0 0 0 0 0 0 0 0 0 0 0 0 0 0 0 0 0 0 0 0 0 0 0 0 0 0 0 0 0 0 0 0 0
0 0 0 0 0 0 0 0 0 0 0 0 0 0 0 0 0 0 0 0 0 0 0 0 0 0 0 0 0 0 0 0 0 0 0 0 0 0 0 0 0 0 0 0
0 0 0 0 0 0 0 0 0 0 0 0 0 0 0 0 0 0 0 0 0 0 0 0 0 0 0 0 0 0 0 0 0 0 0 0 0 0 0 0 0 0 0 0
0 0 0 0 0 0 0 0 0 0 0 0 0 0 0 0 0 0 0 0 0 0 0 0 0 0 0 0 0 0 0 0 0 0 0 0 0 0 0 0 0 0 0 0
0 0 0 0 0 0 0 0 0 0 0 0 0 0 0 0 0 0 0 0 0 0 0 0 0 0 0 0 0 0 0 0 0 0 0 0 0 0 0 0 0 0 0 0
0 0 0 0 0 0 0 0 0 0 0 0 0 0 0 0 0 0 0 0 0 0 0 0 0 0 0 0 0 0 0 0 0 0 0 0 0 0 0 0 0 0 0 0
0 0 0 0 0 0 0 0 0 0 0 0 0 0 0 0 0 0 0 0 0 0 0 0 0 0 0 0 0 0 0 0 0 0 0 0 0 0 0 0 0 0 0 0
0 0 0 0 0 0 0 0 0 0 0 0 0 0 0 0 0 0 0 0 0 0 0 0 0 0 0 0 0 0 0 0 0 0 0 0 0 0 0 0 0 0 0 0
Wind_Speed
23 22 21 19 16 14 18 23 32 22 20 24 25 31 28 27 26 25 25 27 28 28 27 29 31 34 30 22 24 30 28 32 42 40 32 31 33 35 33 44 49 46 53 63
22 20 19 16 14 14 19 27 28 24 18 33 33 29 31 31 30 28 26 28 26 28 28 33 30 30 26 24 25 28 25 34 46 42 37 33 37 35 37 42 46 58 59 58
22 20 18 18 17 15 20 25 33 26 26 30 34 36 36 32 28 30 29 31 29 30 33 32 34 34 29 25 26 25 24 35 41 51 46 43 46 42 40 43 55 60 62 66
20 19 20 19 17 14 20 25 30 27 32 32 29 30 32 33 33 29 28 30 31 34 37 36 37 33 30 27 26 26 31 45 43 46 48 47 50 50 47 49 51 59 64 62
22 22 20 19 17 15 25 29 29 28 31 32 28 28 33 32 30 30 33 33 31 33 36 35 37 33 31 35 27 30 33 49 48 55 48 52 59 52 50 51 52 56 57 57
25 23 21 19 18 16 28 25 26 30 32 31 33 35 35 33 27 30 30 30 32 34 32 30 29 30 32 33 36 36 39 45 50 66 50 55 65 51 49 49 44 45 54 47
26 21 19 19 19 18 23 26 24 25 34 29 33 32 25 26 27 33 28 27 29 27 25 28 29 33 35 35 36 33 41 44 44 59 53 66 46 36 37 43 42 39 40 41
25 22 16 16 15 17 23 23 25 26 28 27 26 25 24 22 21 23 23 26 25 25 28 36 42 40 39 37 32 32 32 37 45 51 53 53 48 44 44 44 45 36 41 40
25 9 5 5 10 8 14 21 21 23 24 28 26 26 23 25 26 25 23 22 22 25 29 33 42 44 40 39 36 31 32 32 40 45 55 61 44 36 32 33 52 34 34 35
2 2 2 2 6 7 10 17 18 19 21 26 25 24 24 22 22 23 22 24 24 24 29 34 39 42 35 41 41 40 38 38 43 47 53 49 37 34 30 49 47 32 34 36
5 5 5 5 5 8 10 16 17 14 17 22 22 21 22 22 23 25 23 24 26 27 32 33 34 37 37 39 36 39 41 43 45 45 51 57 30 29 38 35 33 35 35 35
13 11 8 9 8 9 10 14 15 13 15 12 17 20 23 21 21 22 24 24 26 27 29 30 32 35 35 37 43 31 43 36 41 39 43 33 32 34 32 31 34 34 35 35
15 14 13 11 10 11 11 10 11 13 12 17 19 23 25 25 25 21 23 23 24 25 24 29 30 35 33 41 39 37 33 29 37 40 34 34 31 30 31 29 31 33 34 35
15 14 14 15 15 15 14 13 15 13 13 19 21 20 23 25 25 25 22 20 20 22 24 27 29 33 29 33 33 35 32 31 34 36 36 36 29 27 30 32 32 34 34 34
17 17 16 16 17 17 18 19 20 18 17 19 15 19 26 25 25 25 24 23 22 23 25 26 29 26 28 27 29 31 24 28 32 36 29 32 32 30 31 33 32 30 30 30
20 19 18 16 14 14 15 18 23 23 16 17 22 18 24 25 24 25 26 24 24 22 23 24 23 21 24 27 29 23 21 22 21 27 25 26 25 27 27 25 24 24 25 25
19 19 19 20 20 20 20 19 18 20 17 18 19 21 23 25 25 23 24 24 22 21 21 21 21 21 22 23 26 22 20 18 17 16 18 22 22 24 24 23 24 23 23 22
21 21 21 21 21 20 23 27 22 18 18 20 21 21 22 27 25 23 24 22 21 22 20 20 22 20 19 22 15 17 16 15 15 14 13 15 18 19 20 20 20 20 21 21
19 20 19 19 21 20 20 22 28 28 20 19 21 22 24 25 24 21 21 20 20 20 22 22 23 21 22 19 17 21 22 21 19 19 19 19 20 20 20 20 19 19 19 18
16 17 18 18 19 20 19 21 22 24 26 23 22 23 22 23 22 21 21 21 21 22 23 23 22 22 15 17 16 20 23 25 24 26 27 28 27 28 27 26 26 24 23 22
17 18 16 16 19 19 20 21 22 24 22 23 23 23 22 22 22 22 22 22 22 23 24 27 24 25 24 22 17 14 15 16 16 17 18 20 22 24 26 27 27 27 27 27
17 19 19 20 21 21 20 21 21 22 21 23 23 23 22 21 21 22 22 23 23 23 24 24 25 23 15 16 15 15 15 16 17 17 19 19 20 20 21 22 23 24 25 26
19 19 19 22 22 23 22 22 22 22 23 24 25 24 23 21 21 21 23 24 25 10 24 24 18 12 13 16 17 18 18 18 19 20 20 20 21 21 21 22 22 22 23 23
20 21 22 21 22 23 23 24 24 24 20 13 11 18 19 18 19 17 21 16 14 24 25 22 16 15 18 19 18 19 20 21 21 22 22 23 24 24 23 23 22 22 21 21
21 16 26 26 31 29 24 19 17 15 14 15 17 18 17 16 18 15 15 16 19 19 18 13 15 20 20 20 20 21 22 22 23 24 24 25 25 26 26 25 24 23 21 21
35 22 38 28 27 23 21 19 19 16 15 17 18 16 16 17 17 17 19 17 18 14 13 17 19 20 21 21 21 22 23 24 25 25 26 27 27 28 28 27 26 24 22 22
27 28 25 27 27 25 23 20 16 14 16 18 18 21 19 16 17 17 17 16 12 15 18 18 20 21 22 22 23 23 25 26 27 28 28 28 28 28 29 30 29 26 24 22
Wind_Direction
274 276 276 279 283 300 309 306 300 314 318 302 307 302 307 311 308 308 305 305 303 302 304 303 303 301 303 310 309 306 306 308 301 304 311 310 308 305 300 298 303 299 297 296
273 271 269 264 264 278 298 296 297 309 306 295 295 304 304 305 303 301 304 303 304 305 301 303 300 304 310 307 305 308 308 306 305 307 311 311 306 304 301 301 300 295 295 299
273 268 262 263 259 274 294 296 296 299 293 294 295 295 296 297 302 301 300 301 302 299 298 298 301 303 309 307 306 310 308 302 298 297 304 310 305 303 301 298 296 298 292 298
270 262 259 257 253 261 293 292 292 293 295 294 289 295 298 295 296 300 301 301 296 298 298 298 296 296 303 306 306 306 304 301 301 300 303 303 301 301 300 296 296 294 300 300
275 270 260 250 246 257 286 287 291 293 294 298 291 286 294 292 293 297 299 295 300 298 296 300 301 306 303 302 303 301 302 300 304 301 303 303 300 301 300 299 299 297 300 302
277 271 257 244 234 262 290 291 292 292 292 290 288 291 294 293 290 297 300 301 299 298 301 307 312 310 306 305 305 304 302 304 305 300 307 307 301 304 303 303 305 304 302 307
279 270 253 234 222 259 290 292 293 294 291 290 290 293 298 297 296 293 301 303 301 309 317 314 312 307 305 302 300 301 302 302 303 301 307 300 309 320 317 311 309 311 311 312
283 278 243 227 222 275 287 292 295 296 297 296 302 301 302 308 310 310 307 309 313 316 313 308 305 308 307 307 311 309 310 304 304 301 301 304 307 314 313 312 311 315 313 315
286 261 213 222 262 285 300 305 306 302 297 301 308 303 310 306 302 305 312 322 324 318 311 308 304 304 309 309 314 319 314 310 303 305 304 304 313 321 323 321 307 320 321 320
169 172 176 268 304 313 307 317 309 309 303 311 314 308 308 317 317 315 320 319 320 322 313 308 307 305 310 308 310 313 313 311 304 304 303 306 316 320 324 310 313 325 324 321
98 101 82 58 358 329 331 323 331 321 314 330 333 332 321 317 318 317 319 318 321 318 312 311 312 311 313 311 313 313 312 311 309 309 307 306 323 322 315 319 321 321 322 322
89 82 59 45 32 14 353 329 357 9 334 347 7 3 354 341 334 324 325 321 321 323 318 319 317 314 316 316 311 319 311 312 311 311 310 317 319 316 319 320 319 320 320 321
80 71 58 44 24 13 37 25 35 19 11 353 342 333 346 351 347 342 325 327 327 326 328 322 319 315 320 314 315 317 319 322 313 316 319 319 321 321 321 322 322 322 321 319
70 59 53 54 50 44 33 7 357 357 346 328 334 356 352 355 353 350 347 339 342 336 335 327 325 320 329 321 321 319 321 324 320 317 318 322 325 326 326 323 322 320 319 318
64 61 58 56 56 51 38 22 4 352 337 323 331 349 349 351 357 357 357 350 345 340 335 333 328 333 331 331 329 324 334 329 326 324 329 325 322 324 325 322 320 320 320 319
66 64 57 45 20 355 349 343 357 1 9 342 327 347 348 352 357 354 354 351 351 350 344 343 346 349 344 337 334 344 345 341 335 330 336 328 321 323 324 319 319 321 319 315
54 49 41 33 27 9 344 338 345 347 355 347 337 335 348 347 352 354 354 2 1 358 356 357 358 2 1 353 347 358 352 346 340 330 329 328 327 327 329 325 320 314 312 311
58 50 44 37 35 29 14 8 2 7 5 354 339 338 344 353 348 349 0 359 9 9 13 14 9 14 18 5 15 10 2 351 342 332 326 307 312 319 316 316 318 313 313 315
53 47 37 21 11 7 10 12 20 22 6 351 352 342 340 356 358 4 6 13 8 17 8 9 9 11 7 11 10 3 360 357 341 336 330 324 321 311 314 316 313 310 310 315
24 11 6 359 4 6 11 6 360 3 11 16 7 0 356 5 8 11 9 11 10 8 9 12 9 8 17 10 2 357 354 350 346 341 337 338 332 331 327 325 324 321 318 317
1 355 7 25 17 15 6 359 1 360 6 12 14 17 13 20 13 14 16 12 10 7 10 7 13 12 17 20 12 356 342 338 338 336 327 327 326 325 326 326 325 323 321 320
38 55 46 26 12 9 10 6 14 14 19 17 16 13 25 24 31 26 22 24 26 22 27 28 25 31 34 19 357 344 345 346 342 338 332 328 326 323 320 319 319 321 322 322
34 23 21 10 12 18 25 25 28 31 23 28 20 34 40 59 63 71 56 43 41 88 45 40 48 31 10 360 350 350 352 350 346 343 342 338 332 330 328 322 321 319 321 323
32 31 26 28 31 35 35 43 50 66 92 118 128 109 107 108 102 106 81 91 92 52 40 41 32 352 335 335 340 344 345 348 347 347 346 344 343 341 337 334 331 328 324 321
42 23 46 46 73 81 110 124 128 130 131 123 122 116 111 107 104 101 94 77 63 58 41 7 342 324 328 333 338 341 342 344 345 345 345 345 345 346 344 344 341 338 333 332
88 106 93 121 119 119 119 118 115 118 121 119 114 112 109 96 89 80 72 59 56 38 4 325 326 327 329 331 335 338 340 342 342 344 344 344 346 348 347 346 346 344 342 340
123 120 119 120 117 112 111 113 112 117 111 102 104 90 87 89 75 68 65 52 19 335 330 335 334 331 329 330 332 337 341 344 345 344 346 345 346 348 348 349 350 350 348 346